Wind_Speed
74 75 76 77 78 79 79 78 78 76 76 75 74 74 73 73 73 73 73 73 73 72 73 74 75 75 75 76 76 77 78 80 81 81 82 84 85 85 86 87 88 89 91 93 96 97 98 97 96 94 92 88 84 81 79 78 77 76 76 75 75 75 76 77 75 74 75 77 79 80 81 82 82 82 83 83 84 85 86 88 90 91 93 96 98
76 77 78 80 81 81 81 82 81 80 78 77 76 76 76 76 75 75 75 76 76 76 76 77 77 77 77 78 78 79 80 82 83 84 85 86 86 87 89 90 91 92 94 96 98 100 100 98 96 94 91 88 83 81 79 78 77 77 77 77 77 78 79 80 80 79 79 81 82 82 83 84 84 84 84 84 85 86 87 88 90 92 94 96 98
78 79 81 82 83 84 84 84 84 82 81 80 79 79 79 79 78 77 78 79 79 79 79 79 79 79 79 80 81 81 83 84 85 86 87 88 89 90 91 92 93 95 96 98 100 101 101 99 96 93 91 87 82 80 79 78 78 77 78 79 80 80 82 83 84 84 84 84 85 85 87 87 87 87 87 87 87 88 88 90 92 94 95 97 99
81 82 83 84 85 86 86 86 86 85 84 84 84 84 83 82 81 81 82 82 82 82 82 82 82 82 82 83 84 84 85 87 88 88 90 91 92 93 94 94 96 97 99 100 101 102 101 99 95 92 90 86 82 80 79 78 78 78 79 80 81 82 84 86 87 88 89 88 87 88 89 90 90 90 90 90 89 90 91 92 93 95 96 97 99
84 84 85 86 87 88 88 88 88 88 88 88 88 88 87 86 86 85 85 84 84 85 85 84 84 84 84 86 86 87 88 89 90 91 92 94 94 95 96 97 99 100 100 102 103 103 101 98 94 92 89 85 82 80 79 79 79 79 80 81 83 85 86 87 87 89 90 90 90 91 92 93 93 93 93 92 92 93 94 95 96 96 96 98 99
87 87 87 88 89 90 90 90 90 91 91 91 92 92 91 90 89 89 88 87 88 88 87 86 85 85 86 88 89 90 91 91 92 93 95 96 97 98 99 101 102 102 102 103 104 103 100 97 94 91 89 85 82 80 80 80 80 81 81 83 85 86 87 88 89 91 92 93 93 94 95 95 95 95 95 96 96 96 97 98 99 99 99 99 101
89 90 91 92 92 93 93 93 93 93 93 93 94 93 93 92 91 91 90 90 89 89 88 87 87 88 89 90 91 92 93 93 94 96 97 98 99 101 103 104 104 104 105 105 104 103 100 97 94 91 89 86 84 82 82 82 82 83 83 85 87 88 88 89 91 93 94 95 95 95 95 94 95 95 96 98 99 100 100 101 101 101 101 101 103
92 93 94 95 95 96 96 96 96 95 95 94 94 93 93 92 92 92 92 91 91 90 90 89 89 91 92 93 93 94 94 95 97 98 100 101 103 104 105 105 106 106 107 106 105 103 100 97 94 91 90 88 86 85 85 85 86 86 86 87 88 89 90 91 92 94 96 96 95 95 95 95 96 97 98 100 101 102 103 103 103 102 102 104 105
95 96 97 97 98 98 98 98 97 97 96 95 94 93 94 94 94 94 94 93 93 92 92 92 92 94 95 95 95 95 96 97 99 100 102 104 106 107 107 107 107 108 107 107 105 103 100 97 95 92 90 88 87 87 87 88 89 89 89 90 91 92 93 93 94 95 97 97 97 98 98 99 99 100 100 101 102 103 104 104 103 103 105 106 106
98 99 99 99 100 99 99 99 98 97 96 95 95 95 96 96 96 96 95 95 94 94 94 95 96 96 97 97 97 97 98 99 101 103 106 107 108 108 109 109 109 109 108 106 104 102 100 98 95 93 91 89 88 88 89 90 91 91 91 92 93 94 95 96 97 97 98 99 100 100 101 101 102 102 102 103 104 104 105 104 104 105 106 106 108
101 101 101 101 100 100 100 99 99 99 98 98 98 98 98 97 97 97 96 96 97 97 98 98 99 98 98 98 98 99 101 103 105 107 108 109 110 111 111 111 111 111 109 107 104 102 100 98 96 94 93 91 90 90 91 92 93 93 94 95 95 96 97 98 99 100 101 102 103 104 104 104 104 105 106 106 106 107 107 106 106 107 107 108 109
102 102 102 101 101 101 101 101 101 100 100 100 100 99 99 98 98 98 98 99 99 100 100 100 100 100 100 100 101 102 104 105 107 109 110 111 112 113 113 113 112 111 109 107 105 102 100 98 97 95 94 93 92 92 93 94 96 97 97 98 99 99 100 101 101 102 103 105 107 107 107 107 108 109 109 110 110 110 109 108 108 108 109 110 111
103 103 103 103 103 102 102 102 102 102 102 101 100 100 99 99 100 100 101 101 101 101 101 101 101 101 102 103 104 105 106 108 110 111 112 113 115 116 115 115 113 112 110 107 105 103 101 99 97 96 95 94 95 95 97 98 100 100 101 101 102 102 103 104 104 105 106 107 109 110 110 111 112 113 115 116 115 113 112 111 111 111 111 112 112
104 104 104 104 104 104 103 103 103 103 102 101 101 101 102 102 103 103 103 102 102 102 102 103 104 105 106 107 108 108 109 111 112 114 115 116 117 117 117 116 114 112 110 107 105 103 101 100 98 97 97 97 97 98 100 102 104 105 105 106 106 106 107 107 108 109 110 110 111 112 112 114 115 117 119 120 119 117 116 114 114 113 112 112 111
104 104 104 105 105 104 104 103 103 103 103 103 104 104 104 104 104 104 104 104 104 105 106 107 108 109 110 111 111 111 112 114 115 116 117 118 118 118 117 116 114 111 109 107 106 104 102 101 100 100 99 100 100 102 103 105 107 108 109 110 111 111 112 112 112 113 114 114 115 115 116 117 119 121 122 122 122 120 118 116 114 113 112 110 110
104 104 105 105 105 105 105 105 105 106 106 106 106 106 106 106 107 107 107 108 109 109 110 111 111 112 113 114 114 115 115 116 117 118 119 119 118 118 116 114 113 110 109 108 106 105 104 103 103 103 103 103 105 106 108 109 111 111 113 114 115 115 115 116 116 117 117 118 119 120 121 122 123 124 125 124 123 120 117 114 112 110 109 109 109
104 105 106 106 107 107 108 108 108 108 108 108 109 109 110 110 111 111 111 111 112 112 113 114 114 115 116 117 118 118 117 118 119 120 120 120 119 117 115 114 112 110 108 108 107 107 106 106 107 107 107 107 109 111 112 113 114 115 116 117 118 118 118 119 120 120 121 123 124 125 125 126 126 126 126 124 122 119 115 112 109 109 109 109 109
106 106 107 108 109 109 110 110 110 110 110 111 112 113 113 114 114 115 115 115 115 116 116 117 118 119 119 120 120 120 119 120 120 120 119 119 118 117 115 113 111 110 109 108 108 108 109 109 110 111 111 112 113 114 116 117 117 118 119 120 121 121 121 122 123 124 125 126 127 128 128 128 128 127 126 124 121 117 113 110 109 109 109 108 108
107 108 109 110 111 111 112 112 113 113 114 114 115 116 116 117 118 119 119 119 119 120 120 121 120 121 121 120 121 120 119 119 119 119 118 118 117 116 115 113 112 111 110 110 110 110 111 112 113 114 115 116 117 118 119 120 121 121 122 123 123 123 124 126 126 126 128 129 129 130 130 130 129 128 126 122 118 114 111 109 109 108 106 106 106
110 111 112 113 114 115 116 117 118 118 118 118 119 119 120 120 121 122 123 123 123 123 122 122 121 120 119 119 119 119 118 118 117 117 117 117 117 116 116 115 114 113 113 113 112 112 113 115 116 117 118 119 120 121 122 123 124 124 125 125 125 126 128 129 129 129 129 130 131 131 131 130 129 127 123 119 115 112 110 109 108 106 104 104 106
114 115 116 118 119 120 122 123 123 123 123 123 123 122 122 123 123 123 123 123 122 122 121 121 120 119 118 118 118 117 117 117 117 117 117 117 117 117 117 117 117 117 116 116 115 116 117 117 118 119 120 122 123 124 125 126 126 127 127 128 128 130 131 131 131 131 131 132 132 131 130 129 127 124 120 116 112 110 109 107 106 105 104 104 105
121 121 123 124 125 126 126 127 127 126 126 125 124 122 122 122 121 121 120 120 120 119 119 119 119 118 117 117 117 117 117 117 116 117 117 117 118 119 119 119 119 120 119 119 119 119 120 121 122 122 123 124 126 127 128 128 129 129 129 130 131 132 132 133 132 132 132 132 131 130 128 125 122 119 116 112 109 108 107 105 105 104 104 104 104
126 126 126 127 127 127 126 126 125 125 124 123 121 120 119 119 118 118 118 118 117 117 117 118 118 117 116 115 116 116 117 117 117 118 118 119 119 120 120 121 122 122 123 122 123 124 125 125 126 126 127 128 129 130 131 131 130 130 131 132 132 132 133 132 132 131 130 129 128 125 123 120 117 114 110 107 106 106 105 104 104 103 103 103 102
126 125 125 124 123 123 122 121 121 120 119 119 118 117 116 116 116 116 116 116 116 116 116 116 117 116 115 115 115 116 117 118 118 119 120 121 122 122 123 123 124 126 126 126 127 128 129 130 130 131 131 132 132 132 132 132 132 132 132 132 132 132 131 130 128 127 125 124 121 119 117 115 112 108 105 104 104 104 103 103 103 103 102 101 101
121 120 119 118 117 117 116 116 116 116 116 115 115 115 115 115 115 115 116 116 116 116 116 116 117 117 116 116 116 116 117 118 119 121 122 123 124 125 126 127 128 129 129 129 130 131 132 133 133 134 134 134 135 135 134 133 133 133 132 131 130 129 127 125 123 121 119 117 115 113 111 109 106 103 103 102 102 102 102 102 101 101 100 100 100
115 114 114 114 114 114 114 114 114 114 114 115 115 115 115 115 115 115 115 116 117 117 117 117 117 117 117 117 117 118 118 120 121 123 125 126 127 128 130 131 132 132 133 133 133 134 134 135 136 136 136 137 137 136 135 134 133 131 129 127 125 123 121 119 116 114 112 110 109 107 106 104 102 101 101 100 100 100 100 99 99 99 99 100 100
112 111 111 112 113 114 114 114 114 114 114 114 115 115 115 115 115 114 114 115 116 117 118 118 119 119 120 120 120 121 121 123 125 126 128 129 130 131 133 134 135 137 137 137 137 137 137 137 138 138 138 138 138 136 134 132 129 126 123 120 118 116 114 112 110 108 107 105 104 103 102 100 99 99 99 98 98 98 97 96 97 97 98 99 99
113 112 112 112 113 114 115 115 115 115 115 116 116 117 117 118 118 118 118 119 120 121 121 122 122 123 124 124 124 124 125 126 128 129 131 132 133 134 135 136 138 139 140 140 140 139 139 138 138 137 137 136 135 133 129 125 122 118 116 113 111 110 108 106 105 103 102 101 100 99 98 97 97 97 96 96 95 95 94 94 95 96 96 96 96
116 116 116 116 116 117 117 118 119 119 120 120 121 122 123 123 124 123 123 124 125 125 125 125 125 126 126 126 127 127 127 128 130 132 133 134 135 137 137 138 139 139 140 140 140 139 137 136 134 133 131 130 128 124 120 117 113 111 109 107 105 104 103 101 100 98 97 96 96 95 94 94 94 94 93 93 93 92 92 92 93 93 94 94 94
119 119 119 119 120 120 120 121 121 122 123 123 123 124 124 125 126 126 126 126 127 128 128 127 127 128 129 129 129 130 130 130 132 133 134 135 136 137 137 138 138 137 136 136 134 132 130 128 126 124 122 120 118 115 112 109 106 104 102 101 99 98 97 96 95 94 93 93 92 91 91 91 90 90 90 90 90 89 89 90 90 90 90 90 91
121 121 121 121 122 122 122 123 123 124 124 125 125 125 125 124 125 126 127 128 128 128 129 129 129 130 130 130 130 131 131 132 133 133 134 134 133 133 133 132 132 131 129 127 125 123 122 120 118 116 114 112 110 108 105 103 100 99 97 96 94 93 93 92 91 90 89 89 88 88 88 87 87 87 87 86 86 86 86 87 87 87 87 87 88
123 122 122 123 123 123 123 123 124 124 124 125 126 126 126 125 124 124 126 127 128 128 129 129 130 131 131 130 130 129 129 129 130 129 129 127 126 125 125 124 123 122 121 119 118 116 115 113 111 109 108 106 104 102 100 98 96 95 94 92 91 90 89 89 88 87 86 86 86 85 85 84 84 84 83 83 83 84 84 84 84 84 85 85 86
123 123 123 123 123 123 123 123 123 124 124 125 125 125 126 125 124 124 124 125 127 128 129 129 129 129 128 127 126 125 124 123 123 122 122 120 119 118 118 117 116 116 115 113 111 110 109 107 106 104 103 101 99 97 96 94 93 92 91 90 89 88 87 86 86 85 84 84 83 82 82 82 82 82 81 81 81 82 82 82 83 83 83 84 85
124 124 124 124 124 124 124 124 125 125 125 125 126 126 126 126 126 125 124 123 124 125 127 128 128 127 126 124 122 121 120 119 118 117 116 115 114 114 113 111 110 110 109 107 106 105 104 102 101 100 98 97 95 94 93 91 90 90 89 88 87 86 85 85 84 84 83 82 81 81 81 80 80 80 80 80 80 81 81 81 82 82 83 84 84
126 126 127 127 127 127 127 127 128 128 128 129 128 128 128 128 128 127 126 124 123 123 123 124 126 125 124 121 120 119 117 116 114 113 112 111 110 110 109 107 106 105 104 103 101 100 99 98 97 96 95 94 93 92 91 90 89 88 87 87 86 86 85 84 83 83 83 82 81 80 80 80 80 80 80 80 81 81 82 82 83 83 84 85 85
132 132 132 132 132 131 131 131 132 133 133 133 132 131 130 129 128 127 126 124 123 121 120 120 121 121 120 118 117 115 114 112 111 110 108 107 106 106 105 104 102 101 100 99 98 97 96 95 95 94 93 92 91 91 90 89 87 87 86 86 86 85 85 84 83 83 82 82 81 81 81 81 81 81 81 82 82 83 84 85 85 86 86 87 87
141 141 140 139 138 137 136 135 134 134 134 133 132 131 129 128 126 124 123 121 120 118 117 116 116 116 116 115 113 112 110 109 108 107 106 104 103 103 102 100 99 98 97 96 96 95 94 93 93 92 91 90 90 89 89 88 87 86 86 86 85 85 85 84 84 83 83 82 82 82 82 82 82 83 83 83 84 85 85 86 87 87 87 88 89
142 142 141 140 138 137 135 133 132 132 131 130 129 128 126 125 123 121 120 118 116 115 114 113 113 112 112 111 110 109 107 107 106 105 104 102 101 100 99 98 96 95 95 94 94 94 93 92 91 90 89 89 89 88 88 88 87 87 87 86 86 85 84 84 83 83 83 83 83 83 83 83 84 84 85 85 85 86 87 87 88 88 88 89 89
138 138 137 136 135 133 132 130 129 128 128 127 126 124 123 122 121 119 117 115 113 112 111 111 110 110 109 108 107 106 105 104 103 102 101 100 99 98 97 96 94 94 93 93 92 92 91 91 91 90 88 88 88 88 87 87 87 87 88 87 87 86 85 84 84 83 83 84 84 84 85 85 85 85 86 86 86 87 87 88 88 88 89 89 90
134 133 133 132 131 130 128 127 126 125 124 123 123 122 121 120 119 117 115 112 110 109 108 108 108 107 107 106 105 104 103 102 102 101 100 99 98 97 96 95 94 93 92 91 90 90 90 90 90 89 88 88 87 87 87 87 87 87 87 87 87 86 86 85 84 84 84 84 85 85 85 86 86 86 86 86 86 87 87 88 88 89 89 90 90
130 129 129 128 128 127 126 124 123 123 122 121 120 119 118 118 117 116 114 112 110 108 107 107 106 105 105 104 103 103 102 101 101 100 99 98 97 95 94 93 93 92 91 90 90 90 90 89 89 89 89 88 87 87 86 86 86 86 86 86 86 86 85 85 85 85 85 85 85 85 86 86 86 86 86 86 87 87 87 88 88 89 90 91 91
127 127 126 126 126 125 124 123 122 121 121 120 119 118 118 117 117 115 114 112 110 109 108 107 106 105 103 103 102 102 101 100 100 99 98 97 96 94 94 93 92 91 91 90 90 90 90 90 89 89 89 89 88 86 85 85 85 85 85 85 85 84 84 84 84 84 85 85 85 86 86 86 86 86 86 86 87 87 88 88 89 90 91 92 93
126 125 125 125 125 124 123 122 121 121 120 119 118 118 117 117 116 114 112 111 109 109 108 106 105 104 102 101 101 100 100 99 99 98 97 96 95 94 93 92 92 91 90 90 90 90 90 90 90 90 90 89 87 86 84 84 85 85 85 84 83 83 83 83 83 84 84 85 85 86 86 86 87 87 87 87 88 88 89 90 91 92 93 94 95
124 124 123 123 122 122 121 120 119 118 117 116 116 115 115 114 113 111 110 108 107 107 106 104 103 102 101 100 99 99 98 98 97 97 96 95 94 93 93 92 92 91 91 91 91 92 92 91 91 90 89 88 86 85 84 84 85 85 84 82 82 82 82 83 83 83 84 85 85 86 86 87 87 88 88 89 89 90 91 92 93 94 95 96 98
120 120 119 118 118 117 116 115 114 113 113 112 111 111 110 110 109 107 106 105 104 104 103 102 101 100 99 98 97 97 97 96 95 95 94 94 93 93 92 92 92 92 91 92 92 92 91 91 90 89 87 86 85 85 85 85 85 85 84 83 82 82 83 83 83 84 85 86 86 87 88 88 89 90 90 91 92 92 93 94 95 96 97 99 100
115 115 114 113 112 112 111 110 109 108 107 107 106 106 105 105 104 103 101 100 100 100 99 98 97 96 95 95 95 95 94 94 93 93 93 93 92 92 92 92 92 91 91 91 91 90 89 88 87 86 85 85 85 86 86 86 86 85 85 85 84 84 84 84 85 85 86 87 88 89 90 90 91 92 93 94 95 95 96 97 98 99 100 101 102
112 111 110 109 108 107 106 105 104 103 102 101 101 100 100 100 99 98 96 96 95 95 94 94 93 92 92 92 92 92 92 91 91 91 92 92 91 91 90 90 90 89 89 89 88 88 87 87 86 85 85 86 86 87 87 87 87 87 87 87 87 87 87 87 87 87 88 88 89 90 91 92 94 94 95 96 97 98 98 99 100 101 102 103 104
109 108 106 105 103 102 101 100 99 98 98 97 96 96 95 95 94 93 92 92 91 91 90 90 89 88 88 89 89 89 89 89 89 89 89 89 89 88 88 88 88 87 87 87 88 87 87 87 86 86 87 87 88 88 88 89 89 89 90 90 90 90 90 90 90 90 90 90 90 91 92 93 94 95 96 97 98 99 100 101 101 102 103 103 103
105 104 102 101 100 99 98 97 96 95 94 94 93 92 92 92 91 91 90 89 88 88 88 87 87 86 86 86 86 86 87 87 87 87 87 87 87 87 87 87 87 87 87 88 88 88 88 88 88 88 88 89 89 90 90 91 91 92 92 92 92 92 91 91 91 91 91 91 91 91 92 93 94 95 96 97 98 99 100 100 101 101 101 101 101
102 101 100 99 98 98 96 95 94 93 93 92 92 91 91 90 90 90 89 88 87 87 86 86 86 86 85 85 85 85 85 86 86 86 86 86 86 87 87 88 88 88 89 89 89 89 89 89 89 89 90 90 90 90 91 91 92 92 92 92 92 92 91 91 91 90 90 90 91 91 92 93 93 94 95 96 97 97 98 98 99 99 99 98 98
100 99 99 98 98 98 97 96 95 94 93 93 92 92 91 91 90 90 89 89 88 87 87 86 86 86 86 86 86 86 86 86 87 87 88 88 88 88 88 89 89 89 89 89 89 89 89 89 89 89 90 90 90 90 90 90 90 90 90 90 90 89 89 89 89 89 89 90 90 91 91 92 92 93 93 94 94 95 95 95 95 95 95 95 94
Wind_Direction
289 289 289 289 289 289 290 290 291 292 292 293 293 293 293 293 294 295 296 297 297 297 296 295 296 297 297 297 297 297 297 297 298 299 300 300 301 303 304 305 306 307 308 309 310 311 313 314 314 313 313 312 311 310 308 306 305 305 305 305 305 305 305 305 305 305 305 305 306 306 306 306 306 305 305 303 302 301 300 299 299 299 298 298 299
286 287 287 287 287 288 289 289 290 291 291 291 292 292 293 293 294 295 296 297 297 296 295 295 296 296 296 297 297 297 297 297 298 299 299 300 301 302 303 304 305 306 307 308 309 311 312 313 313 312 312 311 310 308 307 305 304 304 304 304 305 304 304 304 304 304 304 304 305 305 305 305 305 305 304 303 302 301 301 300 299 299 299 299 300
284 284 284 285 286 287 288 288 289 290 291 291 292 292 292 293 294 294 295 296 296 296 296 296 296 296 297 296 296 296 296 296 297 298 299 300 300 301 302 303 304 305 306 307 309 310 311 312 312 311 311 310 309 306 305 304 304 303 303 303 303 303 303 303 303 304 304 304 305 305 305 305 305 304 303 303 302 302 301 301 301 300 300 300 299
282 282 283 284 285 286 287 288 289 290 291 291 292 292 293 293 293 294 295 296 296 296 296 296 296 297 297 296 296 296 296 296 297 298 298 299 300 301 302 303 303 304 306 307 308 309 310 311 311 310 309 308 306 304 303 303 302 302 302 302 302 301 301 302 303 303 303 304 304 304 304 304 303 303 302 303 303 302 302 301 301 300 300 299 299
281 282 283 284 284 285 287 288 289 290 291 292 292 293 293 294 294 295 295 295 296 296 296 296 297 297 297 296 296 296 296 296 297 297 298 298 299 300 301 302 303 304 305 307 308 309 309 310 309 308 307 306 304 302 302 301 301 301 301 300 300 300 300 301 301 301 301 302 303 302 303 303 303 303 303 304 303 302 302 301 301 300 300 299 299
282 282 283 283 284 285 286 288 289 290 291 292 293 293 294 295 295 295 296 296 296 296 296 296 297 296 296 295 295 296 296 296 297 297 297 298 299 300 301 302 303 304 305 306 307 308 308 308 307 306 305 304 302 300 300 300 300 300 300 299 299 299 300 300 300 299 300 301 302 302 303 303 304 304 304 303 302 302 301 301 300 300 300 299 298
282 282 283 283 284 285 286 287 288 289 290 291 292 293 294 294 295 295 295 295 295 295 295 295 295 295 295 294 295 295 296 296 296 297 297 298 299 300 300 302 303 304 305 306 306 306 306 305 305 304 303 302 300 298 298 298 298 298 298 298 298 298 299 299 299 299 300 301 302 302 303 303 302 302 301 300 300 300 300 299 300 300 299 298 297
280 281 282 282 284 285 286 287 288 289 290 291 292 292 293 293 293 294 294 294 294 294 294 294 294 294 294 294 295 295 295 296 296 296 297 298 298 299 300 301 302 303 304 304 305 305 304 304 303 302 301 300 298 297 296 296 296 297 297 297 297 297 297 297 298 298 299 300 301 300 300 300 299 299 298 298 298 298 298 299 299 299 298 297 296
278 279 281 282 283 285 286 287 288 289 289 290 290 291 291 292 292 292 293 293 293 293 293 293 293 294 294 294 294 294 295 295 295 296 296 297 298 299 300 300 301 302 303 303 303 303 302 302 301 300 299 298 297 296 295 295 295 296 296 296 296 296 296 296 297 297 298 299 299 299 298 299 298 298 297 297 297 297 297 298 298 297 296 296 295
279 280 281 282 284 285 286 287 288 288 289 289 290 290 291 291 292 292 292 292 292 293 293 293 293 294 294 294 293 294 294 294 295 295 296 296 297 298 299 300 301 301 301 301 301 301 301 300 299 299 298 297 296 295 294 294 294 295 294 294 294 295 295 296 296 297 297 298 298 299 299 299 298 297 297 297 297 296 297 297 296 295 295 294 294
280 281 282 283 284 286 286 287 287 288 288 289 289 290 290 291 291 291 291 291 292 292 292 293 293 293 293 293 293 293 293 294 294 295 295 296 297 298 299 299 300 300 300 300 299 299 299 298 298 297 296 296 295 294 294 294 293 293 293 293 293 294 294 295 295 296 297 298 298 299 299 298 297 297 297 297 296 296 297 296 295 294 293 292 292
280 281 283 284 284 285 286 286 287 287 288 289 289 289 290 290 290 290 291 291 291 292 292 292 292 292 292 292 292 292 293 293 294 294 295 296 297 297 298 298 298 299 298 298 298 297 297 296 296 295 295 294 294 293 293 292 292 292 292 292 293 293 293 294 294 295 296 296 297 298 298 297 297 297 296 296 297 297 297 295 294 293 292 292 291
281 282 283 284 284 285 285 286 286 287 288 288 288 289 289 289 289 290 290 291 291 291 291 291 291 291 291 291 291 292 292 293 293 294 295 295 296 296 297 297 297 297 297 296 296 295 295 294 293 293 293 292 292 292 291 291 291 291 291 291 292 292 292 292 293 293 294 294 295 296 296 296 296 296 296 296 298 298 297 295 294 293 292 291 291
281 282 283 284 284 285 285 286 286 287 287 287 288 288 289 289 289 290 290 290 290 290 290 290 290 290 290 291 291 292 292 292 293 293 294 294 295 295 295 296 296 295 295 295 294 294 293 292 292 291 291 290 290 290 290 290 290 290 290 291 291 291 291 292 292 293 293 293 294 294 294 294 294 295 295 297 298 297 297 295 294 293 292 291 291
281 282 282 283 283 284 284 285 285 286 286 287 287 288 288 289 289 289 289 290 290 290 289 290 290 290 290 291 291 291 292 292 292 293 293 293 293 294 294 294 294 294 294 293 293 292 291 291 290 289 289 289 288 288 288 288 288 289 289 290 290 291 291 292 292 293 293 293 293 293 293 293 294 294 295 296 297 296 296 295 294 293 292 291 291
281 281 282 282 283 283 284 284 285 285 286 286 287 287 287 288 288 288 289 289 289 289 289 289 290 290 290 290 291 291 291 291 291 291 292 292 292 292 292 292 292 292 292 292 291 291 291 290 290 289 289 288 287 286 286 286 287 287 288 289 289 290 291 292 292 293 293 293 292 292 293 293 294 295 295 296 296 296 295 294 293 292 291 290 290
281 281 282 282 283 283 283 284 284 285 285 286 286 286 287 287 288 288 288 288 288 288 288 289 289 289 289 289 289 289 289 289 290 290 290 290 290 290 291 291 291 291 291 290 290 290 290 290 290 289 289 288 287 286 286 286 286 286 287 287 288 289 290 290 291 291 291 291 292 292 293 293 294 294 295 295 295 294 293 292 291 289 289 289 289
281 281 282 282 283 283 284 284 284 284 285 285 285 286 286 287 287 287 287 287 287 287 287 287 287 287 287 287 288 288 288 288 288 288 289 289 289 290 290 290 290 290 290 289 289 289 289 289 289 288 288 287 287 286 286 286 286 286 287 287 288 288 289 289 289 289 290 290 291 292 292 293 293 293 294 293 293 292 291 290 288 288 288 288 287
281 282 282 282 283 283 283 284 284 284 284 284 285 285 285 285 285 286 286 285 285 285 285 286 286 286 286 286 286 286 287 287 287 288 288 288 289 289 289 289 289 289 288 288 288 288 288 288 287 287 287 286 286 286 286 286 287 287 287 287 288 288 288 288 288 289 290 290 291 291 292 292 292 293 292 292 291 290 289 288 287 287 287 286 286
281 281 282 282 282 283 283 283 283 284 284 284 284 284 284 284 284 284 285 285 285 285 285 285 285 285 285 285 285 286 286 286 287 287 287 288 288 288 288 288 288 287 287 287 287 287 286 286 286 286 286 286 286 286 286 287 287 287 288 288 289 289 288 289 289 290 290 290 290 291 291 291 291 291 291 290 290 289 288 287 287 287 286 285 285
281 281 281 282 282 282 282 283 283 283 283 283 283 283 283 283 283 283 283 284 284 284 284 284 284 284 284 284 284 285 285 285 286 286 286 287 287 287 287 287 286 286 286 286 286 286 285 285 285 285 285 285 286 286 286 287 287 288 288 289 289 289 289 289 290 290 290 290 290 290 290 290 290 290 289 289 288 288 287 287 287 286 286 285 285
280 281 281 282 282 282 282 282 283 283 283 282 282 282 282 282 282 282 282 282 282 282 282 282 283 283 283 283 284 284 284 285 285 285 285 285 285 285 285 286 286 286 286 286 286 286 285 285 285 285 285 285 285 286 286 287 287 288 288 288 288 288 289 289 289 289 289 289 289 289 289 289 289 288 288 288 287 287 286 286 286 286 286 286 286
280 281 281 281 282 282 282 282 282 282 282 281 281 281 281 281 281 281 281 281 281 282 282 282 282 282 283 283 283 283 283 284 284 284 284 284 284 285 285 285 285 285 285 285 285 285 285 285 285 285 285 285 285 286 286 287 287 287 287 288 288 288 288 288 288 288 288 288 288 288 288 287 287 287 287 287 286 286 286 286 285 285 285 286 286
281 281 281 281 281 281 281 280 280 280 280 280 280 280 280 280 280 281 281 281 281 281 281 281 282 282 282 282 282 282 283 283 284 284 284 284 284 284 284 284 284 284 284 284 284 285 285 285 285 285 285 285 285 286 286 286 287 287 287 287 287 287 287 287 287 287 287 287 287 287 287 287 287 287 286 286 285 285 285 285 285 285 285 285 285
280 280 280 279 279 279 279 279 279 279 279 279 280 280 280 280 280 280 281 281 281 281 281 281 281 281 282 282 282 282 283 283 283 283 283 283 283 283 283 283 283 283 283 284 284 284 284 284 285 285 285 285 286 286 286 286 286 286 287 287 287 287 286 286 286 286 286 286 286 286 286 286 286 286 285 285 284 284 284 284 284 284 284 284 283
279 279 278 278 278 277 277 277 277 278 278 279 279 280 280 280 280 281 281 281 281 281 281 281 281 281 281 281 281 281 281 281 281 281 281 282 282 282 283 283 283 283 283 283 283 284 284 284 285 285 285 285 286 286 286 286 287 287 287 287 286 286 286 286 285 285 285 285 285 285 285 285 285 284 284 283 283 283 283 284 284 283 283 282 282
277 277 277 277 277 277 277 277 277 278 278 279 279 280 280 280 280 280 280 279 279 279 279 279 279 279 279 279 279 280 280 280 280 280 281 281 281 282 282 283 283 283 284 284 284 284 284 285 285 285 286 286 286 286 286 287 287 287 287 286 286 286 286 285 285 285 285 284 284 284 284 284 284 283 283 283 283 283 283 283 282 282 282 282 283
275 274 274 275 275 275 275 276 276 276 276 277 277 277 277 277 277 277 277 277 277 277 277 277 278 278 278 278 278 278 279 279 279 280 280 280 281 281 282 282 282 283 283 284 284 285 285 285 285 285 286 286 286 287 287 287 287 287 287 287 286 286 286 285 285 285 284 284 284 284 284 284 283 283 283 283 283 283 283 282 282 282 282 282 283
272 272 272 272 273 273 273 273 273 273 273 273 274 274 275 275 275 275 276 276 276 276 276 277 277 277 277 277 277 277 278 278 278 279 280 280 280 281 281 282 282 283 283 283 284 285 285 285 285 286 286 286 287 287 288 288 288 287 287 287 286 286 286 285 285 285 284 284 284 284 283 283 283 283 283 282 282 282 282 282 282 282 282 282 282
272 272 271 271 271 271 272 272 272 272 272 272 272 273 273 274 275 275 275 275 276 276 276 276 276 276 276 277 277 277 277 278 278 278 279 279 280 281 281 282 282 282 283 283 284 285 285 286 286 286 287 287 287 288 288 288 288 288 287 287 286 286 286 285 285 285 285 284 284 284 283 283 283 282 282 282 282 281 281 281 281 281 281 282 282
272 272 271 271 271 271 271 271 271 272 272 272 272 272 273 273 274 275 276 276 276 276 276 276 276 276 276 276 277 277 278 278 278 279 279 279 280 281 281 282 283 283 284 284 285 285 286 286 287 287 287 287 288 288 288 288 288 288 287 287 286 286 286 286 285 285 285 284 284 284 283 283 283 282 282 281 281 281 281 281 281 281 282 282 283
273 273 273 273 273 273 273 273 273 273 273 273 273 274 274 274 274 275 276 278 278 278 278 278 278 278 278 278 278 278 279 279 280 280 280 281 281 282 282 283 284 284 285 285 286 286 286 287 287 287 287 287 288 288 288 288 288 288 287 287 286 286 286 286 286 285 285 284 284 284 283 283 282 282 282 282 281 281 281 281 282 282 282 283 283
275 275 275 274 275 275 275 276 276 276 276 276 277 277 277 277 277 277 277 279 280 282 282 282 281 281 281 281 281 281 281 281 282 282 283 283 284 284 284 284 285 285 286 286 286 287 287 287 287 287 287 287 288 288 288 288 288 287 287 287 287 287 287 286 286 285 285 285 284 284 283 283 283 283 282 282 282 282 282 283 283 283 283 283 283
279 279 279 279 279 279 280 280 280 280 280 280 280 280 280 281 281 280 280 280 282 283 284 285 285 285 284 284 284 284 284 284 284 284 284 285 285 285 285 285 285 286 286 286 286 286 287 287 287 287 287 287 288 288 288 287 287 287 287 287 287 287 286 286 286 285 285 284 284 284 283 283 283 283 283 283 282 282 282 282 282 282 282 282 282
284 284 284 283 283 283 284 284 284 284 284 284 284 284 284 284 284 284 284 284 284 284 285 286 286 286 286 286 285 285 285 285 285 285 285 286 286 286 286 286 286 286 286 286 286 286 286 287 287 287 287 287 287 287 287 287 287 287 287 287 286 286 286 285 285 285 285 285 284 284 283 283 283 282 282 282 282 282 282 282 282 282 282 282 282
287 287 287 287 286 286 286 286 287 287 287 287 287 286 286 286 286 286 286 286 286 285 285 285 286 286 286 286 286 286 286 286 286 286 286 286 286 286 286 286 286 286 286 286 286 286 286 286 287 287 287 287 287 287 287 287 287 286 286 286 286 285 285 285 285 285 285 284 284 284 283 283 283 282 282 282 282 282 282 282 282 283 283 283 284
289 289 288 288 288 288 288 287 287 287 287 287 287 287 286 286 286 286 286 286 285 285 285 285 285 285 286 286 286 286 286 286 286 286 286 286 286 286 286 286 286 286 286 286 286 286 286 287 287 287 287 287 287 287 287 287 286 286 285 285 284 284 284 284 284 284 284 284 283 283 283 283 282 282 282 283 283 283 283 283 284 284 285 285 286
288 288 288 287 287 287 287 286 286 286 286 286 286 286 286 286 286 286 285 285 285 286 286 285 285 285 286 286 286 286 286 286 286 286 286 286 286 286 286 286 286 286 286 286 286 286 286 286 286 286 286 286 286 286 286 286 286 285 285 284 284 283 283 283 283 283 283 283 282 282 282 282 282 282 282 283 283 283 284 284 285 285 285 286 287
287 287 286 286 286 286 286 286 286 286 286 286 286 286 286 286 286 285 285 285 285 286 285 285 285 285 285 285 286 286 286 286 285 285 285 286 286 286 286 286 286 286 285 285 286 286 285 285 285 285 285 285 285 285 285 285 285 284 284 284 283 283 283 282 282 282 281 281 281 281 281 282 282 282 282 283 283 283 284 284 285 285 285 286 287
286 286 286 286 286 286 286 286 285 285 285 286 286 286 286 286 286 285 285 285 285 285 285 285 285 285 285 285 285 285 285 285 285 285 285 285 285 285 285 286 285 285 285 285 285 284 284 284 284 284 284 284 284 284 284 283 283 283 283 283 283 283 283 282 282 281 281 280 280 281 281 281 281 282 282 282 283 283 283 284 284 285 285 286 287
285 285 285 285 285 285 285 285 285 285 285 286 286 286 286 286 286 286 286 286 286 286 286 285 285 285 285 285 285 285 285 285 285 285 285 285 285 285 285 285 285 285 284 284 283 283 283 283 283 283 283 283 283 283 283 282 282 282 282 282 282 282 282 282 282 281 281 281 281 281 281 281 281 282 282 282 282 283 283 284 284 285 285 286 286
285 285 285 285 285 285 285 285 285 286 286 286 286 286 286 286 286 286 286 287 287 286 286 285 285 285 285 285 284 284 284 284 284 285 285 285 285 285 285 285 284 284 284 283 283 283 283 283 283 283 283 283 283 282 282 281 281 281 281 281 281 281 282 282 282 282 281 281 281 281 281 282 282 282 282 283 283 283 283 284 284 285 285 286 286
284 284 284 285 285 285 285 285 285 285 286 286 286 286 286 286 286 286 286 286 286 286 285 285 285 284 284 284 284 284 283 283 284 284 284 285 285 285 285 284 284 284 283 283 283 283 283 283 283 283 282 282 282 282 281 281 280 280 280 280 281 281 281 281 281 281 281 281 281 281 282 282 282 282 282 283 283 283 283 284 284 285 285 286 286
284 284 284 284 284 284 285 285 285 285 285 285 286 285 285 285 285 285 286 286 285 285 285 284 284 284 284 283 283 283 283 283 283 283 284 284 284 284 284 284 283 283 283 283 283 283 283 283 282 282 282 282 282 281 280 280 280 280 280 280 280 280 280 280 280 280 281 281 281 281 282 282 282 282 282 283 283 283 283 284 284 285 285 286 286
284 284 284 284 284 284 285 285 285 285 285 285 285 285 285 285 285 285 285 285 285 285 284 284 284 284 284 283 283 283 282 282 282 282 282 283 283 283 283 283 283 283 283 283 282 282 282 282 282 282 282 282 282 281 280 280 280 280 281 281 280 280 280 280 280 281 281 281 281 281 282 282 282 282 282 283 283 283 284 284 284 285 285 285 285
284 284 284 284 285 285 285 285 285 285 285 285 285 285 285 285 285 285 285 285 285 285 284 284 284 284 283 283 283 282 282 282 282 282 282 282 282 282 282 282 282 282 282 282 282 282 282 282 282 282 282 281 281 281 281 281 281 281 281 281 281 281 281 280 281 281 281 281 281 281 282 282 282 282 283 283 283 283 283 284 284 284 284 284 285
285 285 285 285 285 286 286 286 286 286 286 286 286 286 285 285 285 285 285 285 285 285 285 284 284 284 283 283 282 282 282 282 282 281 281 281 281 281 281 281 281 281 281 281 281 281 281 282 282 281 281 281 281 281 281 281 282 282 282 282 281 281 281 281 281 281 280 280 281 281 281 281 282 282 282 282 282 282 282 283 282 283 283 283 284
286 286 286 286 286 286 286 286 286 286 286 286 286 286 286 286 286 286 286 286 285 285 285 285 284 284 283 283 283 282 282 282 282 281 281 281 281 281 281 281 281 281 281 281 281 281 281 281 281 281 281 281 281 281 281 282 282 282 282 282 282 282 282 281 281 281 281 281 281 281 280 280 280 280 281 281 281 281 281 281 282 282 283 284 285
287 287 287 287 287 287 287 287 287 286 286 286 286 286 286 286 286 286 286 286 286 285 285 285 285 284 283 283 283 282 282 282 281 281 281 281 281 281 281 280 280 280 280 280 280 281 281 281 281 281 281 281 281 281 281 281 281 281 282 282 282 282 282 282 282 282 281 281 281 280 280 280 280 280 280 280 280 280 281 281 282 283 283 284 285
287 287 287 287 287 287 287 287 287 286 286 286 286 286 286 286 286 286 285 285 285 285 285 284 284 284 283 283 282 282 282 281 281 281 281 280 280 280 280 280 280 280 280 280 280 280 280 280 280 280 280 280 280 280 281 281 281 281 281 281 281 281 281 281 281 281 281 280 280 280 280 279 279 279 280 280 280 281 281 282 282 283 284 284 285
286 286 286 286 286 286 286 286 286 286 286 286 286 286 285 285 285 285 285 285 284 284 284 283 283 283 282 282 282 281 281 281 281 281 281 280 280 280 280 279 279 279 279 280 280 280 280 280 280 280 280 280 280 280 280 280 280 280 280 280 281 281 281 281 280 280 280 280 280 279 279 279 280 280 280 281 281 281 282 283 283 283 284 284 285
Height
10671 10669 10667 10665 10663 10662 10661 10661 10662 10663 10662 10661 10660 10658 10656 10655 10653 10650 10648 10645 10644 10642 10638 10635 10633 10630 10628 10625 10622 10619 10616 10613 10611 10609 10606 10601 10597 10594 10590 10588 10586 10583 10579 10576 10572 10568 10566 10563 10559 10552 10547 10545 10542 10538 10533 10529 10526 10523 10519 10516 10513 10509 10504 10500 10501 10502 10498 10493 10489 10485 10481 10477 10474 10471 10467 10464 10459 10455 10451 10447 10441 10437 10433 10427 10422
10665 10663 10660 10657 10655 10654 10653 10652 10653 10654 10653 10653 10652 10649 10648 10646 10644 10642 10639 10636 10634 10632 10629 10627 10624 10622 10619 10616 10613 10610 10607 10603 10600 10598 10595 10591 10587 10584 10581 10579 10576 10573 10570 10566 10562 10558 10556 10553 10549 10543 10537 10535 10533 10528 10523 10519 10516 10513 10510 10506 10504 10500 10495 10490 10490 10490 10488 10484 10480 10476 10472 10468 10466 10463 10459 10456 10451 10446 10442 10438 10432 10427 10422 10417 10412
10659 10656 10653 10650 10647 10646 10644 10643 10643 10644 10643 10643 10641 10640 10639 10637 10635 10633 10630 10627 10625 10622 10619 10617 10615 10613 10610 10607 10604 10601 10597 10594 10591 10588 10584 10581 10578 10575 10572 10570 10567 10564 10561 10557 10553 10549 10546 10544 10540 10533 10528 10526 10524 10518 10513 10510 10506 10504 10501 10497 10494 10492 10486 10481 10478 10477 10476 10474 10470 10466 10461 10458 10455 10452 10448 10446 10442 10437 10432 10428 10422 10417 10412 10407 10401
10650 10648 10646 10643 10640 10637 10635 10634 10634 10634 10632 10631 10630 10629 10628 10627 10625 10624 10621 10618 10615 10612 10609 10607 10605 10604 10600 10596 10594 10591 10587 10584 10581 10578 10573 10570 10568 10566 10563 10560 10558 10555 10551 10548 10543 10539 10536 10534 10529 10523 10519 10517 10514 10509 10504 10501 10498 10496 10494 10490 10486 10483 10478 10472 10469 10464 10461 10461 10460 10455 10451 10448 10445 10441 10437 10435 10431 10426 10422 10418 10413 10407 10402 10397 10390
10640 10639 10637 10635 10632 10629 10627 10626 10625 10624 10621 10620 10618 10617 10616 10616 10614 10613 10611 10608 10605 10601 10599 10598 10596 10594 10590 10586 10582 10580 10577 10575 10571 10567 10562 10559 10557 10555 10552 10550 10547 10545 10541 10537 10533 10529 10526 10523 10519 10514 10510 10508 10505 10500 10495 10492 10489 10487 10485 10481 10476 10472 10468 10464 10460 10455 10450 10450 10450 10447 10443 10439 10435 10430 10425 10422 10419 10415 10411 10407 10402 10397 10392 10386 10380
10630 10629 10628 10625 10622 10620 10619 10618 10616 10614 10612 10609 10607 10605 10605 10604 10602 10600 10599 10597 10594 10591 10589 10588 10586 10583 10579 10575 10572 10569 10566 10564 10561 10556 10551 10548 10546 10543 10541 10538 10536 10534 10531 10527 10523 10519 10516 10513 10509 10505 10501 10499 10496 10492 10487 10483 10480 10477 10475 10470 10464 10461 10457 10454 10450 10445 10441 10440 10439 10435 10431 10425 10421 10417 10412 10408 10406 10404 10400 10396 10391 10387 10382 10376 10370
10620 10618 10617 10615 10613 10611 10610 10610 10608 10606 10604 10601 10599 10596 10595 10593 10592 10589 10588 10586 10584 10581 10580 10578 10576 10573 10569 10565 10562 10559 10556 10553 10549 10544 10540 10537 10535 10532 10529 10526 10524 10522 10519 10516 10513 10510 10506 10503 10499 10495 10491 10489 10486 10482 10478 10474 10471 10468 10465 10460 10454 10451 10447 10443 10439 10435 10431 10429 10426 10423 10419 10414 10410 10408 10404 10399 10396 10393 10389 10385 10380 10376 10372 10366 10360
10612 10610 10608 10606 10604 10603 10601 10600 10599 10597 10595 10593 10591 10589 10586 10584 10582 10579 10577 10576 10574 10572 10570 10569 10566 10562 10558 10555 10552 10549 10546 10542 10537 10533 10529 10526 10523 10521 10518 10515 10513 10510 10507 10505 10502 10499 10496 10492 10489 10486 10481 10478 10475 10471 10468 10463 10460 10458 10455 10449 10445 10442 10438 10434 10430 10425 10421 10419 10417 10413 10410 10407 10404 10401 10397 10392 10388 10383 10378 10374 10370 10365 10359 10354 10349
10604 10602 10600 10597 10595 10594 10593 10592 10590 10588 10586 10585 10582 10580 10577 10574 10572 10569 10567 10565 10563 10562 10560 10558 10555 10551 10548 10545 10542 10539 10536 10532 10527 10522 10518 10515 10511 10509 10507 10505 10502 10500 10497 10494 10491 10488 10485 10481 10479 10476 10472 10468 10464 10460 10457 10452 10449 10448 10444 10439 10435 10432 10428 10424 10421 10417 10412 10409 10407 10403 10400 10398 10395 10391 10386 10382 10378 10373 10368 10364 10360 10354 10348 10343 10338
10594 10592 10591 10589 10587 10586 10585 10583 10581 10579 10577 10575 10573 10570 10567 10564 10562 10559 10556 10554 10552 10551 10549 10546 10543 10541 10538 10535 10532 10529 10525 10521 10516 10511 10506 10503 10500 10497 10495 10493 10490 10488 10486 10483 10480 10477 10473 10470 10468 10464 10461 10458 10454 10450 10446 10441 10438 10436 10433 10428 10425 10422 10417 10413 10411 10406 10401 10398 10395 10392 10388 10385 10382 10378 10374 10371 10366 10362 10358 10354 10349 10343 10337 10333 10327
10583 10582 10581 10580 10579 10577 10575 10572 10570 10568 10566 10565 10562 10560 10557 10554 10551 10549 10546 10544 10542 10540 10537 10534 10532 10529 10527 10525 10522 10518 10514 10509 10504 10499 10494 10490 10487 10485 10482 10480 10477 10475 10473 10471 10469 10466 10462 10459 10456 10453 10449 10446 10442 10438 10435 10430 10427 10424 10421 10418 10415 10412 10408 10404 10400 10396 10390 10386 10383 10380 10377 10374 10370 10366 10362 10359 10355 10351 10348 10344 10339 10333 10327 10321 10315
10573 10572 10572 10570 10569 10567 10564 10562 10559 10556 10555 10553 10551 10549 10546 10544 10541 10539 10536 10534 10531 10529 10526 10523 10521 10517 10515 10514 10511 10507 10503 10497 10491 10486 10483 10478 10474 10472 10470 10468 10466 10464 10461 10459 10457 10454 10452 10449 10446 10442 10439 10434 10430 10426 10423 10419 10414 10411 10409 10406 10404 10401 10398 10394 10391 10387 10382 10376 10371 10368 10365 10361 10357 10354 10349 10346 10344 10342 10338 10333 10327 10321 10315 10309 10303
10564 10563 10561 10559 10558 10556 10553 10551 10548 10545 10544 10542 10540 10538 10535 10533 10530 10528 10526 10523 10520 10518 10514 10511 10509 10505 10503 10502 10499 10496 10492 10485 10480 10475 10471 10467 10462 10459 10458 10456 10454 10452 10450 10447 10445 10443 10440 10437 10435 10432 10428 10423 10419 10415 10410 10406 10401 10398 10396 10394 10392 10389 10385 10382 10379 10376 10373 10367 10361 10358 10354 10348 10344 10341 10335 10332 10332 10330 10326 10320 10314 10308 10302 10296 10290
10555 10553 10550 10547 10546 10543 10541 10540 10537 10535 10533 10532 10529 10527 10523 10521 10519 10516 10514 10512 10509 10506 10503 10500 10497 10494 10491 10489 10487 10484 10480 10473 10468 10464 10460 10455 10450 10447 10445 10443 10441 10440 10437 10435 10433 10430 10428 10424 10423 10421 10417 10412 10408 10403 10398 10393 10388 10384 10382 10381 10379 10376 10373 10370 10367 10363 10359 10355 10351 10347 10342 10337 10332 10327 10322 10319 10319 10317 10312 10306 10299 10293 10288 10283 10276
10544 10542 10539 10536 10534 10532 10531 10529 10526 10524 10522 10520 10518 10515 10512 10510 10507 10504 10503 10500 10497 10494 10491 10488 10485 10482 10478 10475 10473 10471 10466 10459 10455 10451 10446 10442 10438 10435 10433 10430 10428 10426 10424 10420 10418 10416 10414 10411 10410 10408 10405 10401 10396 10391 10386 10381 10376 10373 10370 10367 10364 10362 10359 10358 10354 10349 10344 10340 10336 10332 10328 10324 10319 10314 10310 10307 10305 10302 10297 10291 10284 10277 10272 10268 10261
10533 10530 10527 10525 10523 10522 10520 10519 10516 10514 10511 10509 10506 10503 10500 10497 10494 10492 10491 10488 10484 10481 10478 10475 10472 10469 10465 10461 10458 10457 10453 10446 10441 10437 10433 10429 10426 10423 10421 10419 10416 10415 10411 10407 10404 10402 10399 10397 10395 10394 10392 10388 10383 10377 10372 10368 10365 10362 10359 10355 10351 10349 10347 10344 10340 10335 10330 10324 10320 10317 10313 10310 10306 10301 10296 10292 10289 10286 10281 10275 10269 10263 10257 10252 10247
10520 10518 10515 10513 10511 10509 10508 10507 10505 10502 10500 10497 10494 10491 10487 10485 10482 10479 10477 10475 10471 10468 10465 10463 10459 10456 10452 10449 10445 10444 10441 10434 10427 10424 10419 10415 10412 10411 10409 10407 10405 10403 10399 10394 10390 10388 10386 10382 10379 10378 10376 10373 10368 10362 10357 10354 10352 10349 10346 10342 10338 10337 10336 10331 10326 10322 10315 10308 10304 10302 10299 10296 10292 10288 10283 10278 10275 10271 10266 10260 10255 10249 10244 10239 10234
10508 10506 10503 10500 10497 10495 10494 10493 10491 10489 10487 10484 10482 10479 10476 10472 10469 10467 10465 10463 10461 10457 10453 10451 10448 10444 10440 10437 10432 10430 10429 10422 10414 10410 10406 10401 10397 10396 10394 10393 10392 10389 10385 10381 10378 10375 10372 10369 10364 10361 10359 10356 10351 10346 10342 10338 10337 10335 10332 10327 10325 10325 10322 10315 10310 10308 10302 10295 10291 10288 10285 10282 10279 10274 10270 10266 10262 10258 10251 10246 10241 10235 10231 10226 10220
10495 10493 10490 10486 10483 10481 10479 10478 10477 10475 10473 10471 10468 10466 10463 10460 10456 10453 10450 10449 10447 10444 10440 10438 10436 10432 10426 10423 10419 10415 10413 10409 10401 10396 10392 10387 10383 10381 10379 10377 10377 10375 10370 10369 10367 10364 10359 10355 10350 10345 10342 10339 10334 10330 10326 10322 10320 10319 10316 10312 10311 10310 10304 10297 10295 10293 10288 10282 10278 10274 10270 10267 10263 10259 10255 10251 10248 10243 10236 10231 10226 10222 10218 10213 10207
10482 10479 10476 10473 10469 10466 10464 10462 10461 10460 10458 10457 10455 10452 10449 10446 10442 10439 10435 10433 10431 10429 10426 10422 10421 10418 10413 10408 10405 10401 10397 10394 10388 10382 10378 10374 10370 10366 10364 10363 10361 10359 10356 10355 10354 10352 10347 10341 10336 10331 10326 10323 10318 10314 10310 10307 10303 10301 10299 10297 10295 10291 10283 10279 10278 10277 10272 10267 10263 10259 10256 10251 10247 10244 10239 10235 10232 10226 10221 10216 10212 10208 10205 10200 10194
10468 10465 10462 10459 10455 10452 10449 10447 10446 10444 10442 10441 10440 10438 10433 10429 10427 10425 10421 10418 10416 10414 10411 10406 10404 10403 10399 10394 10391 10387 10382 10379 10375 10370 10365 10362 10357 10352 10350 10348 10345 10341 10341 10342 10339 10336 10332 10327 10322 10318 10312 10307 10303 10298 10295 10292 10288 10286 10284 10281 10277 10271 10265 10262 10261 10258 10254 10251 10246 10242 10239 10235 10231 10227 10223 10219 10215 10210 10205 10201 10197 10193 10190 10186 10181
10454 10451 10448 10444 10441 10437 10434 10432 10429 10427 10425 10423 10423 10423 10418 10413 10411 10409 10406 10403 10401 10399 10396 10391 10387 10388 10386 10380 10376 10373 10368 10364 10361 10358 10353 10348 10344 10339 10335 10333 10329 10324 10324 10326 10322 10318 10314 10310 10306 10302 10297 10293 10288 10284 10280 10277 10274 10273 10269 10263 10259 10255 10249 10246 10244 10240 10236 10232 10228 10224 10221 10217 10213 10209 10206 10203 10198 10193 10189 10186 10182 10179 10176 10173 10170
10439 10437 10433 10428 10425 10421 10418 10416 10413 10410 10408 10406 10405 10405 10402 10397 10395 10392 10389 10387 10386 10383 10380 10375 10372 10372 10372 10368 10363 10358 10354 10350 10347 10343 10338 10333 10329 10325 10321 10318 10313 10308 10307 10308 10305 10299 10296 10292 10289 10285 10281 10277 10273 10268 10265 10262 10260 10258 10252 10246 10242 10239 10234 10230 10227 10223 10218 10214 10210 10207 10204 10200 10197 10194 10191 10187 10182 10177 10174 10172 10168 10165 10163 10161 10158
10423 10421 10416 10412 10409 10405 10402 10400 10396 10393 10391 10388 10387 10387 10385 10382 10379 10376 10372 10370 10369 10367 10365 10360 10357 10356 10356 10355 10351 10345 10340 10336 10332 10326 10321 10316 10312 10309 10305 10301 10297 10292 10289 10289 10287 10281 10277 10274 10270 10267 10264 10260 10256 10252 10249 10247 10244 10241 10237 10231 10226 10222 10218 10214 10211 10206 10201 10197 10194 10190 10187 10183 10181 10179 10176 10171 10167 10163 10161 10158 10154 10152 10150 10148 10145
10406 10404 10399 10396 10392 10389 10386 10384 10380 10377 10375 10372 10370 10370 10368 10365 10364 10361 10358 10354 10352 10351 10349 10345 10342 10340 10340 10338 10336 10332 10326 10322 10317 10311 10305 10300 10296 10292 10288 10284 10279 10275 10273 10272 10269 10264 10259 10256 10252 10249 10246 10241 10238 10235 10233 10230 10226 10223 10220 10215 10210 10205 10201 10198 10194 10189 10184 10181 10178 10174 10170 10168 10167 10164 10160 10156 10153 10150 10147 10144 10142 10139 10136 10134 10131
10390 10387 10383 10380 10377 10373 10371 10370 10367 10364 10360 10356 10354 10353 10351 10349 10348 10347 10344 10339 10335 10333 10332 10329 10326 10324 10322 10320 10319 10317 10313 10307 10301 10295 10289 10284 10280 10275 10269 10265 10261 10256 10254 10253 10250 10246 10242 10238 10234 10231 10227 10223 10219 10216 10215 10213 10209 10205 10202 10198 10193 10188 10184 10181 10177 10173 10169 10166 10163 10158 10155 10153 10152 10149 10145 10142 10139 10136 10133 10131 10129 10126 10123 10119 10117
10373 10371 10368 10365 10361 10358 10355 10355 10353 10351 10347 10343 10340 10337 10335 10332 10331 10331 10329 10324 10319 10317 10314 10312 10310 10307 10304 10303 10301 10299 10296 10291 10284 10278 10272 10267 10263 10258 10253 10247 10242 10237 10234 10232 10229 10227 10225 10221 10217 10213 10208 10204 10200 10197 10196 10195 10191 10187 10183 10179 10175 10170 10166 10163 10160 10157 10153 10151 10147 10144 10141 10139 10136 10133 10130 10128 10126 10123 10121 10119 10116 10112 10108 10105 10103
10358 10357 10354 10350 10348 10344 10341 10340 10339 10337 10334 10331 10327 10323 10320 10316 10314 10314 10313 10307 10302 10300 10298 10295 10293 10289 10285 10285 10283 10281 10279 10274 10266 10260 10255 10250 10245 10241 10236 10231 10226 10220 10216 10212 10209 10208 10206 10202 10198 10194 10189 10185 10181 10179 10178 10176 10172 10168 10164 10160 10157 10153 10149 10146 10144 10141 10138 10135 10132 10129 10127 10124 10121 10118 10116 10114 10111 10109 10108 10105 10101 10097 10094 10092 10089
10343 10342 10339 10337 10334 10331 10328 10325 10323 10321 10319 10317 10314 10309 10305 10300 10296 10297 10296 10289 10282 10281 10280 10279 10275 10270 10267 10265 10263 10261 10261 10258 10249 10241 10238 10234 10227 10222 10218 10213 10209 10205 10200 10195 10191 10190 10187 10182 10179 10175 10171 10167 10164 10161 10160 10158 10154 10150 10146 10142 10140 10137 10132 10129 10127 10126 10123 10120 10117 10115 10113 10110 10107 10105 10102 10100 10097 10095 10094 10091 10088 10084 10081 10078 10075
10327 10325 10322 10320 10318 10315 10313 10310 10307 10303 10301 10299 10298 10295 10292 10286 10279 10276 10276 10273 10266 10261 10259 10259 10256 10250 10247 10246 10244 10240 10239 10238 10231 10224 10221 10216 10210 10205 10200 10195 10191 10187 10183 10179 10175 10173 10168 10163 10160 10157 10154 10151 10148 10145 10143 10140 10137 10134 10130 10126 10124 10122 10117 10113 10112 10110 10108 10105 10103 10101 10099 10096 10094 10092 10089 10086 10084 10082 10080 10078 10075 10072 10069 10065 10062
10307 10307 10304 10301 10299 10297 10295 10293 10290 10286 10282 10279 10277 10276 10276 10274 10268 10259 10253 10250 10248 10244 10239 10236 10234 10229 10225 10225 10225 10221 10217 10215 10210 10205 10201 10198 10193 10188 10183 10177 10173 10169 10165 10162 10159 10155 10150 10146 10143 10141 10137 10134 10131 10129 10126 10124 10121 10117 10114 10111 10109 10106 10102 10099 10097 10095 10093 10091 10089 10087 10084 10082 10080 10078 10075 10073 10072 10069 10067 10064 10062 10059 10056 10052 10049
10287 10287 10284 10282 10279 10276 10274 10272 10270 10267 10264 10260 10256 10253 10252 10253 10254 10249 10239 10229 10224 10222 10219 10215 10212 10207 10203 10202 10203 10203 10198 10193 10188 10184 10180 10177 10174 10170 10164 10159 10155 10151 10146 10144 10141 10138 10133 10129 10127 10124 10120 10118 10116 10113 10111 10108 10105 10102 10098 10096 10094 10092 10088 10085 10083 10081 10079 10077 10075 10073 10071 10069 10067 10064 10062 10060 10058 10055 10053 10051 10048 10046 10043 10040 10037
10265 10265 10263 10261 10259 10256 10253 10250 10247 10245 10242 10238 10235 10231 10228 10226 10227 10229 10227 10218 10207 10200 10197 10193 10189 10185 10182 10181 10180 10180 10178 10173 10168 10164 10160 10156 10154 10150 10146 10142 10139 10133 10129 10126 10124 10120 10116 10113 10111 10108 10105 10103 10101 10099 10096 10093 10090 10087 10084 10081 10079 10077 10074 10071 10069 10067 10066 10064 10062 10060 10058 10055 10053 10051 10049 10047 10044 10042 10040 10038 10035 10033 10030 10028 10025
10242 10241 10239 10237 10235 10234 10231 10227 10224 10221 10218 10215 10211 10208 10206 10202 10199 10199 10201 10201 10196 10187 10179 10172 10165 10162 10161 10161 10159 10156 10154 10152 10149 10145 10141 10138 10134 10130 10126 10124 10121 10116 10112 10110 10108 10104 10100 10098 10095 10092 10090 10088 10086 10084 10081 10079 10076 10073 10070 10068 10065 10063 10061 10058 10056 10054 10052 10051 10049 10048 10045 10043 10040 10038 10036 10034 10031 10029 10027 10025 10023 10020 10018 10015 10013
10220 10218 10216 10212 10210 10209 10206 10202 10198 10195 10192 10189 10186 10183 10181 10179 10175 10172 10172 10173 10173 10171 10165 10157 10147 10141 10140 10140 10138 10135 10132 10131 10129 10126 10122 10119 10115 10111 10108 10106 10104 10100 10097 10094 10091 10088 10085 10083 10080 10077 10075 10073 10071 10069 10067 10065 10063 10060 10057 10054 10052 10050 10048 10046 10043 10041 10039 10038 10036 10035 10033 10031 10028 10026 10024 10022 10019 10017 10015 10013 10011 10008 10006 10004 10001
10198 10195 10193 10189 10186 10184 10182 10179 10175 10170 10166 10164 10163 10160 10158 10156 10153 10151 10149 10147 10146 10146 10145 10140 10132 10124 10121 10120 10118 10116 10114 10111 10109 10106 10104 10101 10097 10093 10090 10089 10086 10083 10081 10078 10075 10072 10070 10067 10065 10062 10060 10058 10056 10054 10052 10051 10049 10047 10044 10041 10039 10037 10035 10033 10031 10029 10027 10025 10023 10022 10020 10018 10016 10013 10012 10010 10007 10004 10002 10000 9998 9995 9993 9991 9988
10176 10174 10171 10168 10165 10163 10161 10158 10154 10149 10145 10143 10140 10137 10136 10134 10132 10129 10128 10126 10124 10123 10122 10120 10114 10108 10104 10101 10099 10098 10096 10093 10090 10088 10085 10083 10080 10077 10074 10072 10070 10068 10065 10062 10059 10057 10055 10052 10050 10048 10046 10044 10041 10039 10038 10036 10035 10033 10031 10029 10026 10024 10022 10020 10019 10017 10015 10012 10011 10009 10007 10005 10003 10001 9999 9997 9994 9992 9989 9987 9984 9982 9980 9977 9974
10158 10155 10152 10148 10145 10143 10140 10138 10135 10130 10125 10122 10119 10116 10114 10112 10111 10109 10107 10106 10105 10103 10101 10098 10095 10091 10087 10084 10081 10080 10078 10075 10072 10070 10067 10065 10064 10061 10058 10056 10055 10053 10050 10046 10044 10042 10040 10037 10035 10034 10033 10030 10028 10026 10024 10022 10020 10019 10017 10015 10014 10012 10010 10009 10007 10005 10003 10000 9998 9996 9995 9993 9991 9988 9986 9984 9981 9979 9976 9974 9971 9969 9966 9964 9961
10138 10135 10131 10126 10123 10121 10119 10117 10114 10110 10106 10103 10100 10097 10094 10091 10090 10088 10087 10087 10087 10084 10081 10078 10075 10073 10070 10066 10064 10063 10061 10058 10055 10053 10050 10049 10047 10044 10042 10041 10040 10038 10035 10032 10030 10028 10026 10023 10021 10020 10019 10017 10015 10013 10011 10009 10007 10005 10002 10001 9999 9998 9997 9996 9994 9992 9990 9988 9985 9983 9981 9980 9978 9976 9974 9971 9968 9966 9963 9961 9958 9956 9953 9951 9948
10119 10116 10111 10107 10103 10100 10098 10096 10092 10090 10087 10084 10081 10078 10075 10072 10069 10068 10067 10068 10068 10066 10063 10060 10057 10054 10051 10049 10047 10045 10042 10040 10038 10035 10033 10032 10031 10029 10027 10025 10023 10022 10020 10018 10016 10014 10011 10009 10007 10006 10005 10003 10002 10000 9998 9996 9994 9991 9989 9987 9985 9984 9983 9981 9980 9978 9977 9975 9973 9971 9969 9967 9965 9963 9961 9958 9956 9953 9951 9948 9945 9943 9940 9938 9935
10100 10097 10093 10089 10084 10081 10079 10077 10073 10070 10067 10064 10062 10060 10056 10053 10050 10048 10047 10048 10048 10047 10045 10042 10039 10037 10034 10032 10030 10027 10024 10022 10020 10018 10016 10015 10014 10013 10012 10009 10007 10006 10005 10003 10001 9998 9996 9995 9993 9992 9990 9989 9988 9987 9985 9983 9980 9978 9976 9974 9972 9971 9969 9967 9966 9964 9963 9961 9959 9957 9955 9953 9951 9949 9947 9945 9943 9940 9938 9936 9933 9930 9927 9924 9921
10081 10078 10075 10070 10066 10063 10061 10058 10055 10052 10049 10046 10044 10041 10038 10034 10032 10030 10029 10029 10028 10027 10025 10023 10021 10019 10018 10015 10013 10010 10008 10006 10004 10001 9999 9998 9997 9997 9995 9993 9992 9990 9988 9987 9985 9983 9981 9980 9978 9977 9975 9974 9973 9972 9971 9968 9966 9964 9962 9961 9959 9958 9956 9954 9952 9950 9949 9947 9945 9943 9941 9939 9937 9935 9933 9932 9929 9927 9925 9922 9920 9917 9914 9911 9908
10062 10059 10056 10052 10049 10045 10042 10040 10038 10035 10031 10029 10026 10023 10019 10016 10014 10013 10012 10011 10010 10007 10005 10004 10002 10001 10000 9999 9996 9994 9992 9990 9988 9985 9983 9982 9982 9980 9978 9976 9975 9974 9972 9971 9969 9967 9965 9964 9963 9961 9960 9959 9958 9957 9956 9953 9951 9949 9948 9947 9946 9944 9942 9941 9939 9937 9935 9933 9931 9930 9928 9926 9924 9922 9920 9918 9916 9914 9911 9909 9906 9904 9901 9898 9894
10045 10041 10038 10034 10032 10028 10025 10023 10021 10018 10015 10012 10009 10005 10001 9998 9997 9996 9996 9994 9991 9989 9987 9986 9984 9983 9982 9981 9979 9977 9976 9974 9972 9970 9968 9967 9966 9965 9962 9960 9959 9958 9956 9955 9953 9951 9949 9948 9946 9945 9944 9943 9942 9941 9940 9938 9936 9935 9934 9934 9933 9931 9929 9927 9925 9924 9922 9920 9918 9916 9914 9912 9910 9908 9906 9904 9902 9900 9898 9895 9893 9890 9887 9884 9881
10026 10024 10021 10017 10014 10011 10008 10006 10004 10001 9999 9995 9991 9988 9985 9981 9980 9979 9979 9977 9973 9970 9969 9969 9967 9965 9964 9963 9961 9960 9958 9958 9956 9955 9953 9951 9951 9949 9947 9945 9944 9942 9941 9939 9937 9935 9934 9932 9931 9930 9929 9928 9927 9925 9924 9923 9921 9920 9920 9920 9919 9917 9916 9914 9912 9911 9909 9907 9905 9903 9901 9899 9897 9894 9892 9890 9888 9886 9884 9881 9879 9876 9873 9870 9867
10008 10006 10003 10001 9997 9994 9992 9989 9987 9984 9982 9978 9975 9972 9969 9966 9964 9963 9962 9960 9957 9954 9952 9952 9951 9949 9948 9946 9944 9942 9941 9940 9940 9938 9937 9935 9935 9933 9932 9930 9929 9927 9925 9924 9921 9920 9919 9917 9917 9916 9914 9913 9912 9910 9908 9908 9907 9906 9905 9904 9903 9903 9902 9900 9899 9897 9895 9893 9891 9889 9887 9885 9882 9880 9878 9876 9873 9871 9869 9866 9864 9861 9858 9855 9852
9989 9987 9985 9983 9981 9978 9975 9973 9970 9967 9965 9962 9959 9956 9953 9950 9949 9947 9946 9945 9942 9939 9937 9936 9935 9933 9932 9930 9928 9926 9925 9924 9923 9922 9920 9919 9918 9917 9916 9915 9913 9912 9910 9909 9907 9906 9905 9904 9903 9902 9900 9899 9897 9896 9894 9893 9892 9891 9890 9889 9888 9887 9887 9885 9884 9883 9882 9880 9878 9876 9873 9871 9868 9865 9863 9861 9858 9856 9854 9851 9848 9846 9843 9840 9837
9970 9968 9966 9965 9963 9960 9958 9956 9954 9951 9948 9945 9943 9940 9937 9935 9933 9932 9931 9929 9927 9924 9922 9921 9919 9918 9916 9914 9912 9911 9909 9908 9907 9906 9904 9903 9902 9901 9900 9899 9898 9897 9896 9894 9892 9892 9891 9890 9889 9888 9886 9885 9883 9882 9880 9879 9878 9876 9875 9874 9873 9872 9871 9870 9869 9868 9867 9865 9864 9862 9859 9856 9854 9851 9848 9846 9843 9841 9838 9835 9833 9830 9828 9826 9823
9952 9950 9948 9947 9945 9942 9941 9939 9938 9935 9933 9930 9928 9926 9923 9920 9918 9916 9915 9914 9912 9910 9908 9906 9904 9903 9902 9900 9898 9896 9894 9893 9892 9891 9890 9889 9888 9886 9885 9884 9883 9882 9881 9880 9879 9878 9877 9876 9875 9874 9873 9871 9870 9868 9866 9865 9863 9861 9860 9859 9858 9857 9856 9855 9854 9852 9851 9849 9848 9846 9843 9841 9838 9835 9833 9830 9827 9825 9822 9820 9817 9815 9813 9810 9808
9937 9935 9933 9930 9928 9926 9924 9923 9921 9920 9917 9915 9913 9911 9909 9906 9904 9901 9900 9899 9898 9896 9894 9892 9890 9888 9887 9886 9884 9882 9880 9879 9877 9876 9875 9874 9873 9872 9871 9869 9868 9867 9866 9865 9864 9863 9862 9861 9860 9859 9858 9857 9856 9854 9852 9851 9849 9847 9845 9844 9843 9842 9841 9839 9838 9837 9835 9833 9831 9829 9827 9824 9822 9819 9817 9814 9812 9810 9807 9805 9802 9800 9798 9795 9793
9923 9920 9918 9915 9913 9910 9908 9907 9906 9904 9902 9900 9898 9895 9893 9891 9889 9887 9885 9884 9882 9881 9880 9878 9876 9874 9872 9871 9869 9868 9866 9864 9862 9861 9860 9859 9858 9857 9855 9854 9853 9852 9851 9850 9849 9849 9847 9846 9846 9844 9843 9842 9840 9839 9837 9836 9834 9833 9831 9830 9828 9827 9826 9824 9823 9821 9819 9817 9815 9813 9811 9809 9807 9804 9802 9800 9798 9795 9793 9790 9787 9785 9782 9780 9778